Regional Weather Roundup
Issued by NWS Charleston, SC

Current Version | Previous Version | Text Only | Print | Product List | Glossary Off
Versions: 1 2 3 4 5 6 7 8 9 10 11 12 13 14 15 16 17 18 19 20 21 22 23 24 25 26 27 28 29 30 31 32 33 34 35 36 37 38 39 40 41 42 43 44 45 46 47 48 49 50
000 ASUS42 KCHS 170927 RWRCHS REGIONAL WEATHER ROUNDUP NATIONAL WEATHER SERVICE CHARLESTON SC 400 AM EST FRI NOV 17 2017 NOTE: "FAIR" INDICATES FEW OR NO CLOUDS BELOW 12,000 FEET WITH NO SIGNIFICANT WEATHER AND/OR OBSTRUCTIONS TO VISIBILITY. NOT ALL STATIONS ARE QUALITY CONTROLLED. USE DATA WITH CAUTION... ESPECIALLY DEWPOINT OBSERVATIONS. SCZ027-030-031-034>040-042>050-171000- ...SOUTHEAST SOUTH CAROLINA... CITY SKY/WX TMP DP RH WIND PRES REMARKS N CHARLESTON CLEAR 43 43 100 N3 30.12S WATERFRONT PRK NOT AVBL JOHNS ISLAND FAIR 50 48 93 N7 30.12R PINOPOLIS N/A 55 46 71 NE9 30.05R MONCKS CORNER FAIR 46 39 76 NE3 30.13S SUMMERVILLE FAIR 37 37 100 CALM 30.14R BEAUFORT MCAS NOT AVBL BEAUFORT ARPT FAIR 46 46 100 N3 30.11S HILTON HEAD IS CLEAR 46 46 100 CALM 30.12S WALTERBORO SUNNY 37 36 93 CALM 30.13S ALLENDALE FAIR 41 41 100 CALM 30.11F ...SOUTHERN MIDLANDS AND PEE DEE... CITY SKY/WX TMP DP RH WIND PRES REMARKS GEORGETOWN FAIR 45 41 87 NE8 30.14R KINGSTREE FAIR 36 36 100 CALM 30.14S ORANGEBURG CLEAR 41 39 93 CALM 30.13S BARNWELL N/A 39 37 93 CALM 30.12S AIKEN FAIR 43 36 75 NE6 30.16S MANNING FAIR 43 41 93 MISG 30.13S COLUMBIA CLEAR 38 36 92 CALM 30.14S SUMTER CLEAR 45 33 63 N5 30.12R FLORENCE CLEAR 44 35 70 N7 30.14S MYRTLE BEACH CLEAR 46 39 76 N10 30.14R N MYRTLE BEACH CLEAR 46 39 76 N9 30.13R $$ GAZ063-065-086>088-099>101-113>116-118-119-134>141-150-171000- ...SOUTHEAST GEORGIA... CITY SKY/WX TMP DP RH WIND PRES REMARKS SAVANNAH ARPT CLEAR 43 42 97 CALM 30.11F HUNTER AAF CLEAR 46 44 94 CALM 30.08F FORT STEWART CLEAR 43 41 94 CALM 30.09S STATESBORO CLEAR 39 39 100 CALM 30.11S SYLVANIA SUNNY 40 40 100 CALM 30.12S CLAXTON FAIR 40 40 98 CALM 30.12S ...CSRA...CENTRAL AND FAR SOUTHEAST GEORGIA... CITY SKY/WX TMP DP RH WIND PRES REMARKS THOMSON CLEAR 34 34 97 CALM 30.18S AUGUSTA-BUSH FOG 36 35 96 CALM 30.13R VSB 1/4 AUGUSTA-DANIEL CLEAR 51 39 63 NE5 30.12F SWAINSBORO FAIR 37 37 100 CALM 30.13R VIDALIA CLEAR 43 43 100 CALM 30.12S EASTMAN FAIR 37 32 81 CALM 30.15S HAZE HAZLEHURST FOG 46 44 94 CALM 30.11S VSB<1/4 ALMA CLEAR 43 42 97 CALM 30.11S FOG WAYCROSS FOG 46 43 90 CALM 30.11S VSB 1 JESUP FAIR 43 39 87 CALM 30.11S BAXLEY FAIR 41 41 100 CALM 30.11S FOG BRUNSWICK FOG 43 41 93 CALM 30.11S VSB 1/4 SAINT SIMONS CLEAR 52 49 89 N5 30.09S $$ SCZ027-028-034-036>038-045-046-048>050-GAZ119-141-171000- ...LAKE AND SUPPLEMENTAL COASTAL OBSERVATIONS... STATION/POSITION TIME TEMP WIND PRES WAVE SWELL AIR SEA DIR/SP/G HT/PER HT/PER/DIR (UTC) (F) (DEG/KT/KT) (MB) (FT/S) (FT/S/D) WINYAH BAY 0830 51 10/ 8 1020.0R LAKE MURRAY 0920 46 CALM 1020.0S ACE BASIN NERRS 0845 45 CALM 1020.0S FORT PULASKI 0900 53 62 10/ 3/ 4 1019.7 SAPELO ISLAND 0900 50 30/ 4 1019.0 $$ ANZ835-935-AMZ111-154-330-350-352-354-370-450-454-472-171000- ...C-MAN AND BUOY OBSERVATIONS... STATION/POSITION TIME TEMP WIND PRES WAVE SWELL AIR SEA DIR/SP/G HT/PER HT/PER/DIR (UTC) (F) (DEG/KT/KT) (MB) (FT/S) (FT/S/D) BUOY 41004 0910 65 75 340/ 16/ 19 1018.5 BUOY 41008 0850 64 68 10/ 6/ 8 1019.0S 2/ 9 2/ 90/ 9 FOLLY BEACH CMAN 0900 53 340/ 6/ 8 1020.0S CAPERS NEARSHORE 0908 54 64 360/ 14/ 19 1019.3F FRIPP NEARSHORE 0908 56 63 20/ 6/ 8 1018.7R STATION/POSITION TIME TEMP WIND PRES WAVE SWELL AIR SEA DIR/SP/G HT/PER HT/PER/DIR (UTC) (F) (DEG/KT/KT) (MB) (FT/S) (FT/S/D) 5E ST. MARYS GA 0900 65 N/A 3/10 2/ 80/11 FRYING PAN BUOY 0910 63 72 10/ 19/ 25 1018.5 BUOY 41025 0910 57 64 360/ 21/ 25 1018.8 CAPE LOOKOUT NC 0900 51 360/ 17/ 21 1019.8R BUOY 41002 0850 69 77 360/ 16/ 19 1015.7R 7/11 5/ 50/11 BUOY 41010 NOT AVBL ST AUGUSTINE FL 0900 55 66 320/ 4/ 5 1018.9R $$

USA.gov is the U.S. government's official web portal to all federal, state and local government web resources and services.